FENGYUN 1C DEB, 30063

Orbit data source: Space-Track

FENGYUN 1C DEB, 30063 is space debris in SSO originally from a launch on Mon, 10 May 1999 UTC launched from the Taiyaun Space Center, China (TSC). Fengyun 1C debris stems from the Chinese weather satellite Fengyun-1C, which was intentionally destroyed by a Chinese anti-satellite missile in 2007. This event dramatically increased the amount of space debris, with thousands of trackable fragments posing hazards to satellites and human spaceflight. The Fengyun 1C debris cloud has become a focal point in discussions about space sustainability and the need for international regulations to prevent the creation of new debris.

Loading next visibility...
Identifier
30063, 1999-025PQ
Orbit
SSO
Country
Flag of CNCN / PRC
Related business
Manufacturer
Unknown
Mission
Spacecraft
Bus & Motor
Unknown
Mass
Unknown
Launch date (UTC)
1999-05-10 (27 years ago)
Launch vehicle
Unknown
Launch site
Taiyaun Space Center, China (TSC)
Object type
Payload
Rocket body
Debris
Shape & HBR
Unknown shape, 0.2 m
Radar Cross Section
Medium (>0.1 m² and <1 m²)

Expand to show TLE details & history
Last TLE update: 8 hours ago

TLE from 8 hours ago
0 FENGYUN 1C DEB
1 30063U 99025PQ  26164.87708514  .00000067  00000-0  55586-4 0  9992
2 30063  98.5427 140.9308 0031661 331.0927  86.7204 14.15675508  2579
Epoch: 2026-06-13T21:03Z
TLE epoch observation values (Epoch: 2026-06-13T21:03:00.156Z)
Latitude
57.26431°
Longitude
-90.44572°
Altitude
848.361 km
Speed
7.435 km/s
True Right ascension
08h 29m 57s
True Declination
57° 06' 35"
Sunlit
Object was in daylight at epoch
Visualization orbit readout
Latitude
Unknown
Longitude
Unknown
Altitude
Unknown
Speed
Unknown
Apparent Right ascension
Unknown
Apparent Declination
Unknown
Sunlit
N/A
Visualization observer readout
Local Sidereal Time
15:41:24
Azimuth
Unknown
Elevation
Unknown
Doppler factor
Unknown
Orbital elements
Apogee altitude
860.016 km
Perigee altitude
814.327 km
Semi-major axis
7,215.309 km
Eccentricity
0.00317
Inclination
98.5427°
RAAN
140.9308°
Arg. of periapsis
331.0927°
True anomaly
87.08269°
Mean anomaly
86.7204°
Eccentric anomaly
86.90154°
Mean motion
3.54128 °/min
Orbital period
101.66 mins
BSTAR
0.000055586
Loading maneuver chart data...
Computing Atmospheric mass density...

Documentation

Showing up to 5 results
|